Regional Weather Roundup
Issued by NWS Charleston, WV

Home | Current Version | Previous Version | Text Only | Print | Product List | Glossary Off
Versions: 1 2 3 4 5 6 7 8 9 10 11 12 13 14 15 16 17 18 19 20 21 22 23 24 25 26 27 28

000
ASUS41 KRLX 291610
RWRRLX
West Virginia Regional Weather Roundup
National Weather Service Charleston WV
1200 PM EDT FRI APR 29 2016

Note: "fair" indicates few or no clouds below 12,000 feet with no
significant weather and/or obstructions to visibility.

WVZ003-291700-
Northern Panhandle of West Virginia

CITY           SKY/WX    TMP DP  RH WIND       PRES   REMARKS
WHEELING       CLOUDY    54  48  80 W8        30.01R
$$

WVZ009-291700-
Northwest West Virginia

CITY           SKY/WX    TMP DP  RH WIND       PRES   REMARKS
PARKERSBURG    CLOUDY    58  54  86 W5        30.04R
$$

WVZ006-291700-
Western West Virginia

CITY           SKY/WX    TMP DP  RH WIND       PRES   REMARKS
HUNTINGTON       N/A     72  53  51 SW9       30.00S
$$

WVZ015-291700-
West Central West Virginia

CITY           SKY/WX    TMP DP  RH WIND       PRES   REMARKS
CHARLESTON       N/A     70  51  51 W7G17     30.00R
$$

WVZ022-031-291700-
North Central West Virginia

CITY           SKY/WX    TMP DP  RH WIND       PRES   REMARKS
CLARKSBURG     PTSUNNY   64  55  72 NW12      29.99R
MORGANTOWN     CLOUDY    60  52  74 VRB3      29.99S
$$

WVZ025-035-042-045-291700-
Southern West Virginia

CITY           SKY/WX    TMP DP  RH WIND       PRES   REMARKS
BECKLEY          N/A     67  45  45 NW17G26   30.05R
LOGAN          NOT AVBL
BLUEFIELD        N/A     65  45  48 W9G25     30.08R
LEWISBURG        N/A     66  44  44 NW8G17    30.03R
$$

WVZ047-291700-
Northern Mountains of West Virginia

CITY           SKY/WX    TMP DP  RH WIND       PRES   REMARKS
ELKINS         PTSUNNY   65  48  54 W13G18    29.99F
$$

WVZ052-291700-
Eastern Panhandle of West Virginia

CITY           SKY/WX    TMP DP  RH WIND       PRES   REMARKS
MARTINSBURG    CLOUDY    48  46  93 VRB3      30.04F FOG
PETERSBURG     CLOUDY    54  51  90 NW3       30.01F
$$




USA.gov is the U.S. government's official web portal to all federal, state and local government web resources and services.